sat.trackr.live / text

‹ back to catalog

STARLINK-31644

NORAD 59391 · 2024-062T

PAYLOAD ACTIVE UNKNOWN

§ Identity

Operator
Country
US
Launch date
2024-04-02
Launch site
AFWTR
Launch vehicle
Mass (kg)
RCS (m²)

Purposes: comms

External: N2YO · Heavens-Above · Gunter

§ Orbital elements

Epoch: 2026-05-25T04:00:03.998880Z

Period
93.89 min
Inclination
53.1581°
Eccentricity
0.0002503
Mean motion
15.33713030 rev/d
Perigee alt
463.0 km
Apogee alt
466.5 km
Semi-major
6,842.9 km
B*
2.5416e-2
RAAN
262.9716°
Arg perigee
129.1451°
Mean anomaly
269.9007°
Rev number
590

§ Raw data

STARLINK-316441 59391U 24062T   26145.16671295  .00904757  00000+0  25416-1 0  99962 59391  53.1581 262.9716 0002503 129.1451 269.9007 15.33713030  5901

JSON: /api/v1/satellites/59391 · /tle

For live sub-satellite position, see the globe view (requires WebGL).

§ Visibility from observer

Set your observer location to see the next 7 days of passes ≥ 10°. The values pass through the URL so the page stays shareable.

No JS? Fill the form by hand. The geolocation button needs JavaScript.